EB1RD-13 Weather Reports


time (UTC)temp
F
wind
direction
speed
knots
gust
knots
rain 1hr
in
rain 24hr
in
rain mn
in
humidity
%
barometer
mb
20260902074540 71 80 0.9 1.7 0.00 0.00 0.00 62
20260902073538 69 91 0.9 1.7 0.00 0.00 0.00 63
20260902072536 69 37 1.7 3.5 0.00 0.00 0.00 64
20260902071534 68 76 0.9 1.7 0.00 0.00 0.00 72
20260902070532 65 84 0.9 1.7 0.00 0.00 0.00 77
20260902065530 64 87 0.9 2.6 0.00 0.00 0.00 80
20260902064528 64 95 1.7 3.5 0.00 0.00 0.00 80
20260902063526 63 76 0.9 2.6 0.00 0.00 0.00 81
20260902062524 62 68 0.0 1.7 0.00 0.00 0.00 82
20260902061522 62 90 0.9 2.6 0.00 0.00 0.00 82
20260902060520 61 0.0 0.9 0.00 0.00 0.00 81
20260902055518 61 91 0.9 2.6 0.00 0.00 0.00 81
20260902054516 61 95 1.7 2.6 0.00 0.00 0.00 81
20260902053614 62 73 0.9 2.6 0.00 0.00 0.00 81
20260902052612 62 90 0.9 2.6 0.00 0.00 0.00 81
20260902051610 62 84 0.9 3.5 0.00 0.00 0.00 81
20260902050608 62 99 2.6 3.5 0.00 0.00 0.00 81
20260902045606 62 95 1.7 3.5 0.00 0.00 0.00 81
20260902044604 63 95 0.9 1.7 0.00 0.00 0.00 80
20260902043602 63 90 1.7 3.5 0.00 0.00 0.00 80
20260902042600 64 111 1.7 3.5 0.00 0.00 0.00 80
20260902041558 64 0.0 0.9 0.00 0.00 0.00 80
20260902040556 64 68 0.9 1.7 0.00 0.00 0.00 80
20260902035554 64 0.0 0.0 0.00 0.00 0.00 80
20260902034553 63 0.0 0.9 0.00 0.00 0.00 80
20260902033550 63 0.0 0.9 0.00 0.00 0.00 80
20260902032548 63 0.0 0.0 0.00 0.00 0.00 80
20260902031546 63 0.0 0.9 0.00 0.00 0.00 80
20260902030544 63 90 0.0 1.7 0.00 0.00 0.00 80
20260902025542 63 90 0.0 1.7 0.00 0.00 0.00 80
20260902024540 63 45 0.9 1.7 0.00 0.00 0.00 79
20260902023539 63 45 0.0 1.7 0.00 0.00 0.00 79
20260902022537 63 0.0 0.9 0.00 0.00 0.00 79
20260902021535 64 73 0.9 1.7 0.00 0.00 0.00 79
20260902020613 64 45 1.7 1.7 0.00 0.00 0.00 78
20260902015530 64 52 1.7 3.5 0.00 0.00 0.00 77
20260902014528 65 97 1.7 2.6 0.00 0.00 0.00 77
20260902013527 65 81 2.6 3.5 0.00 0.00 0.00 76
20260902012525 66 77 0.9 2.6 0.00 0.00 0.00 76
20260902011543 66 49 0.9 1.7 0.00 0.00 0.00 74
20260902010520 66 0.0 0.9 0.00 0.00 0.00 74
20260902005519 67 90 0.0 1.7 0.00 0.00 0.00 74
20260902004517 67 0.0 0.0 0.00 0.00 0.00 75
20260902003516 66 0.0 0.0 0.00 0.00 0.00 75
20260902002613 66 0.0 0.0 0.00 0.00 0.00 75
20260902001611 66 0.0 0.9 0.00 0.00 0.00 76
20260902000609 66 45 1.7 1.7 0.00 0.00 0.00 76
20260901235607 66 45 0.9 1.7 0.00 0.00 0.00 76
20260901234606 66 64 0.9 2.6 0.00 0.00 0.00 75
20260901233604 66 45 0.9 1.7 0.00 0.00 0.00 75
20260901232601 66 45 1.7 1.7 0.00 0.00 0.00 74
20260901231641 67 45 0.9 1.7 0.00 0.00 0.00 74
20260901230617 66 75 0.0 1.7 0.00 0.00 0.00 74
20260901225555 66 45 0.9 2.6 0.00 0.00 0.00 73
20260901224553 66 45 0.9 2.6 0.00 0.00 0.00 73
20260901223611 67 55 0.9 1.7 0.00 0.00 0.00 73
20260901222549 67 51 0.9 2.6 0.00 0.00 0.00 72
20260901221547 67 45 0.9 1.7 0.00 0.00 0.00 72
20260901220545 67 45 1.7 1.7 0.00 0.00 0.00 71
20260901215543 67 48 0.9 1.7 0.00 0.00 0.00 71
20260901214541 67 0.0 1.7 0.00 0.00 0.00 71
20260901213539 67 0.0 0.0 0.00 0.00 0.00 71
20260901212537 67 0.0 0.0 0.00 0.00 0.00 71
20260901211535 67 0.0 0.0 0.00 0.00 0.00 71
20260901210533 67 0.0 0.9 0.00 0.00 0.00 71
20260901205551 67 0.0 0.9 0.00 0.00 0.00 70
20260901204529 68 0.0 0.9 0.00 0.00 0.00 70
20260901203527 68 30 0.0 1.7 0.00 0.00 0.00 70
20260901202525 68 45 0.0 1.7 0.00 0.00 0.00 69
20260901201523 68 0 0.9 1.7 0.00 0.00 0.00 67
20260901200541 68 0.0 0.9 0.00 0.00 0.00 67
20260901195519 68 45 0.9 2.6 0.00 0.00 0.00 67
20260901194537 68 45 1.7 1.7 0.00 0.00 0.00 66
20260901193515 69 90 0.0 1.7 0.00 0.00 0.00 65
20260901192633 69 65 0.9 2.6 0.00 0.00 0.00 65
20260901191611 70 53 0.9 1.7 0.00 0.00 0.00 64
20260901190610 70 49 0.9 2.6 0.00 0.00 0.00 62
20260901185607 70 68 0.9 1.7 0.00 0.00 0.00 62
20260901184605 70 30 1.7 2.6 0.00 0.00 0.00 61
20260901183605 71 33 2.6 4.3 0.00 0.00 0.00 61
20260901182601 71 33 1.7 3.5 0.00 0.00 0.00 60
20260901181559 71 0 1.7 3.5 0.00 0.00 0.00 60
20260901180557 72 45 1.7 3.5 0.00 0.00 0.00 58
20260901175555 72 30 2.6 4.3 0.00 0.00 0.00 58
20260901174553 72 60 2.6 6.1 0.00 0.00 0.00 58
20260901173551 73 29 3.5 6.1 0.00 0.00 0.00 57
20260901172549 73 316 2.6 5.2 0.00 0.00 0.00 56
20260901171547 73 7 4.3 9.6 0.00 0.00 0.00 55
20260901170545 75 41 3.5 7.0 0.00 0.00 0.00 52
20260901165543 77 353 2.6 5.2 0.00 0.00 0.00 51
20260901164541 75 66 4.3 7.0 0.00 0.00 0.00 52
20260901163539 77 19 4.3 9.6 0.00 0.00 0.00 49
20260901162537 77 353 5.2 10.4 0.00 0.00 0.00 48
20260901161535 77 27 5.2 8.7 0.00 0.00 0.00 50
20260901160535 78 270 5.2 7.8 0.00 0.00 0.00 46
20260901155531 77 45 4.3 7.8 0.00 0.00 0.00 48
20260901154530 77 33 4.3 7.8 0.00 0.00 0.00 47
20260901153527 77 304 4.3 7.8 0.00 0.00 0.00 48
20260901152546 77 26 7.0 9.6 0.00 0.00 0.00 46
20260901151524 78 30 4.3 10.4 0.00 0.00 0.00 46
20260901150522 77 54 4.3 8.7 0.00 0.00 0.00 47
20260901145519 78 37 5.2 10.4 0.00 0.00 0.00 43
20260901144518 79 21 4.3 7.0 0.00 0.00 0.00 41
20260901143536 79 292 4.3 9.6 0.00 0.00 0.00 42
20260901142614 79 43 3.5 7.0 0.00 0.00 0.00 42
20260901141612 78 6 2.6 7.0 0.00 0.00 0.00 43
20260901140611 78 0 1.7 2.6 0.00 0.00 0.00 43
20260901135608 77 33 3.5 7.8 0.00 0.00 0.00 45
20260901134606 79 55 4.3 10.4 0.00 0.00 0.00 41
20260901133604 79 67 4.3 7.0 0.00 0.00 0.00 39
20260901132622 78 40 1.7 4.3 0.00 0.00 0.00 42
20260901131600 80 51 5.2 11.3 0.00 0.00 0.00 39
20260901130558 78 49 3.5 6.1 0.00 0.00 0.00 41
20260901125556 77 124 2.6 5.2 0.00 0.00 0.00 43
20260901124554 81 33 3.5 8.7 0.00 0.00 0.00 34
20260901123552 82 25 0.9 2.6 0.00 0.00 0.00 33
20260901122550 80 121 1.7 4.3 0.00 0.00 0.00 36
20260901121548 77 176 0.9 1.7 0.00 0.00 0.00 40
20260901120606 77 90 1.7 3.5 0.00 0.00 0.00 41
20260901115544 78 256 1.7 4.3 0.00 0.00 0.00 40
20260901114542 77 6 0.9 2.6 0.00 0.00 0.00 42
20260901113540 78 236 1.7 3.5 0.00 0.00 0.00 40
20260901112538 80 216 1.7 3.5 0.00 0.00 0.00 34
20260901111536 81 131 1.7 3.5 0.00 0.00 0.00 34
20260901110554 80 332 0.9 3.5 0.00 0.00 0.00 37
20260901105532 78 294 0.9 3.5 0.00 0.00 0.00 40
20260901104530 78 91 0.9 2.6 0.00 0.00 0.00 41
20260901103528 77 174 1.7 5.2 0.00 0.00 0.00 41
20260901102526 77 114 0.9 3.5 0.00 0.00 0.00 42
20260901101524 75 143 1.7 2.6 0.00 0.00 0.00 47
20260901100522 73 90 1.7 3.5 0.00 0.00 0.00 49
20260901095520 73 101 1.7 4.3 0.00 0.00 0.00 49
20260901094518 73 82 0.9 2.6 0.00 0.00 0.00 49
20260901093516 74 46 0.9 2.6 0.00 0.00 0.00 49
20260901092634 75 44 2.6 6.1 0.00 0.00 0.00 48
20260901091612 75 56 1.7 5.2 0.00 0.00 0.00 48
20260901090610 75 60 0.9 3.5 0.00 0.00 0.00 53
20260901085610 73 315 0.9 2.6 0.00 0.00 0.00 55
20260901084608 72 327 0.9 2.6 0.00 0.00 0.00 59
20260901083604 70 90 0.0 1.7 0.00 0.00 0.00 62
20260901082602 68 45 0.9 1.7 0.00 0.00 0.00 69
20260901081601 65 90 0.0 1.7 0.00 0.00 0.00 71
20260901080618 65 90 0.9 1.7 0.00 0.00 0.00 73
20260901075616 65 0.0 0.9 0.00 0.00 0.00 74